Price, UT

6:59 PM MDT on April 26, 2018 (GMT -0600)
Carbon County

Weather History for KPUC - May, 2014

Change the Weather History Date:

Thursday, May 8, 2014

  Actual Average Record
Temperature  
Mean Temperature 48 °F -  
Max Temperature 60 °F 65 °F 90 °F (1989)
Min Temperature 36 °F 37 °F 26 °F (1981)
Degree Days  
Heating Degree Days 18    
Moisture  
Dew Point 28 °F    
Average Humidity 51    
Maximum Humidity 89    
Minimum Humidity 27    
Precipitation  
Precipitation 0.00 in - - ()
Sea Level Pressure  
Sea Level Pressure 29.93 in    
Wind  
Wind Speed 7 mph (NW)    
Max Wind Speed 22 mph    
Max Gust Speed 32 mph    
Visibility 10 miles    
Events      
Averages and records for this station are not official NWS values.
T = Trace of Precipitation, MM = Missing Value Source: NWS Daily Summary

Daily Weather History Graph

Daily Weather History Graph

Search for Another Location

Airport or City:

Astronomy

May. 08, 2014 Rise Set
Actual Time 6:15 AM MDT 8:23 PM MDT
Civil Twilight 5:45 AM MDT 8:53 PM MDT
Nautical Twilight 5:09 AM MDT 9:30 PM MDT
Astronomical Twilight 4:29 AM MDT 10:10 PM MDT
Moon 2:29 PM MDT (5/8) 2:47 AM MDT (5/8)
Length of Visible Light 15h 07m
Length of Day
14h 08m
Waxing Gibbous, 65% of the Moon is Illuminated
May 8
Waxing Gibbous
May 14
Full
May 21
Last Quarter
May 28
New
Jun 5
First Quarter

Hourly Weather History & Observations

Time (MDT) Temp. Windchill Dew Point Humidity Pressure Visibility Wind Dir Wind Speed Gust Speed Precip Events Conditions
12:53 AM 37.0 °F - 33.1 °F 86% 29.86 in 10.0 mi Calm Calm - N/A   Clear
1:53 AM 37.4 °F - 33.8 °F 87% 29.86 in 10.0 mi Calm Calm - N/A   Scattered Clouds
2:53 AM 36.0 °F 30.3 °F 30.9 °F 82% 29.87 in 10.0 mi North 6.9 mph - N/A   Clear
3:53 AM 37.0 °F 32.4 °F 30.0 °F 76% 29.90 in 10.0 mi SSE 5.8 mph - N/A   Partly Cloudy
4:53 AM 36.0 °F - 33.1 °F 89% 29.91 in 10.0 mi Calm Calm - N/A   Mostly Cloudy
5:53 AM 36.0 °F - 32.0 °F 86% 29.91 in 10.0 mi Calm Calm - N/A   Mostly Cloudy
6:53 AM 39.0 °F - 34.0 °F 82% 29.91 in 10.0 mi Calm Calm - N/A   Overcast
7:53 AM 42.1 °F - 34.0 °F 73% 29.93 in 10.0 mi Calm Calm - N/A   Partly Cloudy
8:53 AM 48.0 °F - 30.9 °F 52% 29.93 in 10.0 mi NNW 11.5 mph - N/A   Clear
9:53 AM 50.0 °F - 30.9 °F 48% 29.95 in 10.0 mi NW 11.5 mph - N/A   Scattered Clouds
10:53 AM 51.1 °F - 30.0 °F 44% 29.96 in 10.0 mi NNW 12.7 mph - N/A   Overcast
11:53 AM 54.0 °F - 23.0 °F 30% 29.94 in 10.0 mi West 11.5 mph 19.6 mph N/A   Scattered Clouds
12:53 PM 55.0 °F - 26.1 °F 33% 29.95 in 10.0 mi West 15.0 mph 25.3 mph N/A   Overcast
1:53 PM 57.0 °F - 24.1 °F 28% 29.91 in 10.0 mi WSW 12.7 mph 21.9 mph N/A   Scattered Clouds
2:17 PM 57.2 °F - 28.4 °F 33% 29.96 in 10.0 mi North 11.5 mph 25.3 mph N/A   Scattered Clouds
2:53 PM 57.2 °F - 24.8 °F 29% 29.96 in 10.0 mi West 21.9 mph 28.8 mph N/A   Partly Cloudy
3:53 PM 57.9 °F - 26.1 °F 30% 29.92 in 10.0 mi West 20.7 mph 32.2 mph N/A   Clear
4:19 PM 59.0 °F - 27.0 °F 29% 29.96 in 10.0 mi NW 13.8 mph 28.8 mph N/A   Scattered Clouds
4:53 PM 57.9 °F - 24.1 °F 27% 29.93 in 10.0 mi WNW 19.6 mph 29.9 mph N/A   Clear
5:53 PM 57.0 °F - 24.1 °F 28% 29.93 in 10.0 mi WNW 11.5 mph 23.0 mph N/A   Clear
6:53 PM 55.9 °F - 27.0 °F 33% 29.92 in 10.0 mi NNW 13.8 mph 20.7 mph N/A   Clear
7:53 PM 55.0 °F - 24.1 °F 30% 29.93 in 10.0 mi NW 9.2 mph 19.6 mph N/A   Clear
8:53 PM 50.0 °F - 24.1 °F 36% 29.94 in 10.0 mi WNW 5.8 mph - N/A   Clear
9:53 PM 45.0 °F 41.8 °F 25.0 °F 46% 29.96 in 10.0 mi NNE 5.8 mph - N/A   Clear
10:53 PM 45.0 °F 40.1 °F 26.1 °F 48% 29.96 in 10.0 mi NNE 9.2 mph - N/A   Clear
11:53 PM 43.0 °F 37.7 °F 25.0 °F 49% 29.95 in 10.0 mi NNE 9.2 mph - N/A   Clear